Address 0xdacc55c5834d5a2bf9f49ade69c7b15324d95404 2

 
Txn Hash Method
Block
From
To
Value [Txn Fee]
0x51f8d8e06de0548965614c40977b7af53b3b44cb9a0eed2a0bb1079b9abaedaaSafe Transfer Fr...204626722021-10-21 19:53:512 days 1 hr ago0xdacc55c5834d5a2bf9f49ade69c7b15324d95404OUT 0x992476768bb98c8a421378a52e7b09ac78ff1ac80 MATIC0.00145119
0x1d7cc85f8b19a395f6a589a6f5807b83c401a138ef22ffba5e793fbc84baeff5Safe Transfer Fr...204626002021-10-21 19:51:232 days 1 hr ago0xdacc55c5834d5a2bf9f49ade69c7b15324d95404OUT 0x992476768bb98c8a421378a52e7b09ac78ff1ac80 MATIC0.00196419
0x52444e2bf4e43248bcc31e8eada9519ded0c84691bcb54e915ea01bd187cb6e1Safe Transfer Fr...204513022021-10-21 12:32:292 days 9 hrs ago0xdacc55c5834d5a2bf9f49ade69c7b15324d95404OUT 0x992476768bb98c8a421378a52e7b09ac78ff1ac80 MATIC0.002805634
0xa8a62c7043179053e61f2823d2241f639bd24fe0177de4f6c1a3379bfa9b1042Safe Transfer Fr...204504382021-10-21 12:00:132 days 9 hrs ago0xdacc55c5834d5a2bf9f49ade69c7b15324d95404OUT 0x992476768bb98c8a421378a52e7b09ac78ff1ac80 MATIC0.003601015
0x87719dfb20a0bb43dbc62bc07fa882c0362c6b35f172f4eda95dc4832c629a01Set Token URI203971032021-10-20 0:24:273 days 21 hrs ago0xdacc55c5834d5a2bf9f49ade69c7b15324d95404OUT 0x992476768bb98c8a421378a52e7b09ac78ff1ac80 MATIC0.00142008
0xfda9658a794db721242de6d9d191b66875a0269b35c00652009264dc509e5618Set Token URI203970822021-10-20 0:23:453 days 21 hrs ago0xdacc55c5834d5a2bf9f49ade69c7b15324d95404OUT 0x992476768bb98c8a421378a52e7b09ac78ff1ac80 MATIC0.00142008
0x996732ee6cd2d2bf5b7d7b6af64bd760c0625659c859c440f4a4dc317bf633b7Set Token URI203970682021-10-20 0:23:173 days 21 hrs ago0xdacc55c5834d5a2bf9f49ade69c7b15324d95404OUT 0x992476768bb98c8a421378a52e7b09ac78ff1ac80 MATIC0.00142008
0x3b6f9eb44d36d3eaf23ae3bad465651443fcc6b2d8312e934d215d7bab3a3997Set Token URI203970562021-10-20 0:22:533 days 21 hrs ago0xdacc55c5834d5a2bf9f49ade69c7b15324d95404OUT 0x992476768bb98c8a421378a52e7b09ac78ff1ac80 MATIC0.00142008
0x1c76d1f2c5ef104bfa91bfcceb310db125ee052079fecd3ba3494224fc51d8acSet Token URI203970392021-10-20 0:22:153 days 21 hrs ago0xdacc55c5834d5a2bf9f49ade69c7b15324d95404OUT 0x992476768bb98c8a421378a52e7b09ac78ff1ac80 MATIC0.00142008
0x0c0f151e4fb941cc94dbbbc892313334de49e7e14b6042fdee2d329002cdc8ffSet Token URI203970182021-10-20 0:21:333 days 21 hrs ago0xdacc55c5834d5a2bf9f49ade69c7b15324d95404OUT 0x992476768bb98c8a421378a52e7b09ac78ff1ac80 MATIC0.00142008
0x26448da414163ee95b8171d0bdc1ec1d4a599af1e5f776369e5e79ebe14c0d5dSet Token URI203970022021-10-20 0:21:013 days 21 hrs ago0xdacc55c5834d5a2bf9f49ade69c7b15324d95404OUT 0x992476768bb98c8a421378a52e7b09ac78ff1ac80 MATIC0.00142008
0x18d2a01c03afa934e663baf7df443f9fd6db3ed5bd28386ee27df0b1715306f3Set Token URI203969892021-10-20 0:20:313 days 21 hrs ago0xdacc55c5834d5a2bf9f49ade69c7b15324d95404OUT 0x992476768bb98c8a421378a52e7b09ac78ff1ac80 MATIC0.000057797256
0x911530d1ccafe023c367876fbafb23ad0d51dae0c977409d2574202a55e2f99eSet Token URI203969622021-10-20 0:19:373 days 21 hrs ago0xdacc55c5834d5a2bf9f49ade69c7b15324d95404OUT 0x992476768bb98c8a421378a52e7b09ac78ff1ac80 MATIC0.000044122056
0xd3488d777bff7ffa8357adf227911a52053d634082f35fedb48f94458d51632aSet Token URI203968592021-10-20 0:15:553 days 21 hrs ago0xdacc55c5834d5a2bf9f49ade69c7b15324d95404OUT 0x992476768bb98c8a421378a52e7b09ac78ff1ac80 MATIC0.000057797256
0x41142cacfbb854500b9590979d6d27d2e0ea0e07869e797b6832eadbc9f84397Set Token URI203968212021-10-20 0:13:233 days 21 hrs ago0xdacc55c5834d5a2bf9f49ade69c7b15324d95404OUT 0x992476768bb98c8a421378a52e7b09ac78ff1ac80 MATIC0.000057797256
0x7b99ffff825d9498cddb9116311650d4cf2bbc91bc04010acb2ec7ba309134d3Set Token URI203968042021-10-20 0:12:153 days 21 hrs ago0xdacc55c5834d5a2bf9f49ade69c7b15324d95404OUT 0x992476768bb98c8a421378a52e7b09ac78ff1ac80 MATIC0.000057797256
0x92437303f3e975d4633dcd343c328aed41cd20167e165d15e65c57276b67b555Set Token URI203967822021-10-20 0:11:173 days 21 hrs ago0xdacc55c5834d5a2bf9f49ade69c7b15324d95404OUT 0x992476768bb98c8a421378a52e7b09ac78ff1ac80 MATIC0.000057797256
0xe8c5e34ccd1c9cb36ecda381c843c967c9a0fa7af60409e4399b44d39a1230f6Set Token URI203967622021-10-20 0:10:373 days 21 hrs ago0xdacc55c5834d5a2bf9f49ade69c7b15324d95404OUT 0x992476768bb98c8a421378a52e7b09ac78ff1ac80 MATIC0.000063576982
0xf95c3127578866a155c21a0c8b0b2f3a522ed33c1af4d10a97998bccac150095Set Token URI203967472021-10-20 0:10:073 days 21 hrs ago0xdacc55c5834d5a2bf9f49ade69c7b15324d95404OUT 0x992476768bb98c8a421378a52e7b09ac78ff1ac80 MATIC0.00142008
0x4fe42d2c0bd7aa423d4e2d8af2d757e0d61ad2225c2c8acaf20eeed245ee3b4bSet Token URI203967202021-10-20 0:08:393 days 21 hrs ago0xdacc55c5834d5a2bf9f49ade69c7b15324d95404OUT 0x992476768bb98c8a421378a52e7b09ac78ff1ac80 MATIC0.00142008
0xf22c6561ebc66d17d469c023c04fb2a8230af77246ca5a6bc804011f153f7b11Set Token URI203967132021-10-20 0:08:113 days 21 hrs ago0xdacc55c5834d5a2bf9f49ade69c7b15324d95404OUT 0x992476768bb98c8a421378a52e7b09ac78ff1ac80 MATIC0.00142008
0xda7b19c8c9c95a68eb82b34728c0e71e8426f119f519b11ea96dc1140f4b2d10Set Token URI203967032021-10-20 0:07:313 days 21 hrs ago0xdacc55c5834d5a2bf9f49ade69c7b15324d95404OUT 0x992476768bb98c8a421378a52e7b09ac78ff1ac80 MATIC0.00108408
0xc425ccacf02428f8c66772a40f461aa19d0e19c8faff2b28941d5bfb1c3d165bSet Token URI203937432021-10-19 22:03:353 days 23 hrs ago0xdacc55c5834d5a2bf9f49ade69c7b15324d95404OUT 0x992476768bb98c8a421378a52e7b09ac78ff1ac80 MATIC0.00004011096
0x4bbaa9ba2f72c9fdb454fa7297239e5e1880372a0533f047e30a789c8c80252aSet Token URI203936422021-10-19 21:59:233 days 23 hrs ago0xdacc55c5834d5a2bf9f49ade69c7b15324d95404OUT 0x992476768bb98c8a421378a52e7b09ac78ff1ac80 MATIC0.00004011096
0x6a1788af5f6810f4a00fd4e0fa001cb8c4332ca206cba6f9682075434339d487Set Token URI203936212021-10-19 21:57:593 days 23 hrs ago0xdacc55c5834d5a2bf9f49ade69c7b15324d95404OUT 0x992476768bb98c8a421378a52e7b09ac78ff1ac80 MATIC0.00005254296
[ Download CSV Export 
Latest 4 internal transactions
Parent Txn Hash Block From To Value
0xa5f6bc161ce121c32521ef4e7b3833c589ea4996aa6cac73f2281aed1912f590199653202021-10-08 1:27:3315 days 20 hrs ago 0x1fdc5e69729eecf8e933c904e86faf7a8886f6610xdacc55c5834d5a2bf9f49ade69c7b15324d9540410.103065716625732252 MATIC
0x82ae0716b14a059672e221a492ce1b31b988b1560473e160676084b33a4187a4199650462021-10-08 1:18:0515 days 20 hrs ago 0x1fdc5e69729eecf8e933c904e86faf7a8886f6610xdacc55c5834d5a2bf9f49ade69c7b15324d9540410.004914129200654156 MATIC
0x0134f7532fab063528e7786309dae3923bec421803440d1c2fb1bfefe3828c73199650142021-10-08 1:17:0115 days 20 hrs ago 0x1fdc5e69729eecf8e933c904e86faf7a8886f6610xdacc55c5834d5a2bf9f49ade69c7b15324d954049.951159551750117852 MATIC
0x2f011337b86ea2c2037ca54995bbf7c5d8029c8d1e288c6a75035eb9b9b4ffb2199648332021-10-08 1:08:4715 days 20 hrs ago 0x00000000000000000000000000000000000010100xdacc55c5834d5a2bf9f49ade69c7b15324d954044.9985 MATIC
[ Download CSV Export 
Loading

Contract Name:
0 MATIC

Compiler Version
0

Optimization Enabled:
0 MATIC

Other Settings:
-NA-
Block Transaction Gas Used Reward
Age Block Fee Address BC Fee Address Voting Power Jailed Incoming
Block Uncle Number Difficulty Gas Used Reward
Loading
Loading
Make sure to use the "Vote Down" button for any spammy posts, and the "Vote Up" for interesting conversations.